TimeCST,TemperatureF,Dew PointF,Humidity,Sea Level PressureIn,VisibilityMPH,Wind Direction,Wind SpeedMPH,Gust SpeedMPH,PrecipitationIn,Events,Conditions,WindDirDegrees,DateUTC
12:53 AM,32.0,27.0,82,30.11,8.0,ENE,5.8,-,N/A,,Scattered Clouds,70,2012-11-06 06:53:00
1:53 AM,32.0,27.0,82,30.10,8.0,NE,5.8,-,N/A,,Clear,50,2012-11-06 07:53:00
3:53 AM,30.0,26.1,85,30.07,6.0,ENE,4.6,-,N/A,,Clear,60,2012-11-06 09:53:00
4:53 AM,30.0,26.1,85,30.07,6.0,ENE,4.6,-,N/A,,Mostly Cloudy,70,2012-11-06 10:53:00
6:53 AM,33.1,28.9,85,30.06,4.0,East,4.6,-,N/A,,Overcast,80,2012-11-06 12:53:00
7:53 AM,34.0,30.0,85,30.06,4.0,ESE,5.8,-,N/A,,Overcast,110,2012-11-06 13:53:00
8:53 AM,37.0,30.9,79,30.06,5.0,ESE,4.6,-,N/A,,Haze,120,2012-11-06 14:53:00
9:53 AM,39.9,33.1,77,30.04,6.0,SSE,4.6,-,N/A,,Haze,160,2012-11-06 15:53:00
10:53 AM,43.0,33.1,68,30.04,7.0,SSW,4.6,-,N/A,,Overcast,200,2012-11-06 16:53:00
11:53 AM,44.1,34.0,68,30.00,8.0,South,5.8,-,N/A,,Overcast,170,2012-11-06 17:53:00
12:53 PM,45.0,36.0,71,29.97,8.0,South,8.1,-,N/A,,Overcast,190,2012-11-06 18:53:00
1:53 PM,45.0,37.0,74,29.95,7.0,SSW,8.1,-,0.00,Rain,Light Rain,200,2012-11-06 19:53:00
2:53 PM,44.1,39.0,82,29.96,4.0,SSW,4.6,-,0.01,Rain,Light Rain,210,2012-11-06 20:53:00
3:14 PM,42.8,37.4,81,29.94,4.0,South,4.6,-,0.02,Rain,Light Rain,190,2012-11-06 21:14:00
3:53 PM,43.0,39.0,86,29.95,4.0,SSW,4.6,-,0.04,Rain,Light Rain,200,2012-11-06 21:53:00
4:51 PM,42.8,39.2,87,29.92,2.5,South,5.8,-,0.02,Rain,Light Rain,180,2012-11-06 22:51:00
4:53 PM,42.1,39.9,92,29.94,2.5,South,6.9,-,0.02,Rain,Light Rain,190,2012-11-06 22:53:00
5:46 PM,42.8,39.2,87,29.93,2.5,South,4.6,-,0.00,Rain,Light Rain,170,2012-11-06 23:46:00
5:53 PM,42.1,39.9,92,29.94,2.5,South,5.8,-,0.00,Rain,Light Rain,170,2012-11-06 23:53:00
6:32 PM,42.8,39.2,87,29.93,2.5,South,6.9,-,0.01,Rain,Light Rain,180,2012-11-07 00:32:00
6:53 PM,42.1,39.9,92,29.94,2.5,South,6.9,-,0.02,Rain,Light Rain,170,2012-11-07 00:53:00
7:53 PM,42.1,39.9,92,29.93,1.8,South,5.8,-,0.01,Rain,Light Rain,180,2012-11-07 01:53:00
8:04 PM,41.0,39.2,93,29.92,1.5,South,6.9,-,0.00,Rain,Light Rain,180,2012-11-07 02:04:00
8:34 PM,41.0,39.2,93,29.91,1.5,South,8.1,-,0.00,,Overcast,180,2012-11-07 02:34:00
8:42 PM,41.0,39.2,93,29.91,1.5,South,6.9,-,0.00,,Overcast,180,2012-11-07 02:42:00
8:53 PM,41.0,39.9,96,29.93,1.5,South,5.8,-,0.00,,Overcast,180,2012-11-07 02:53:00
9:43 PM,42.8,39.2,87,29.90,1.5,South,5.8,-,0.01,,Overcast,180,2012-11-07 03:43:00
9:53 PM,42.1,41.0,96,29.92,1.5,South,5.8,-,0.01,,Overcast,180,2012-11-07 03:53:00
10:43 PM,42.8,41.0,93,29.89,1.5,SSW,5.8,-,N/A,,Overcast,200,2012-11-07 04:43:00
10:53 PM,42.1,41.0,96,29.91,1.5,SSW,5.8,-,N/A,,Overcast,200,2012-11-07 04:53:00
11:46 PM,42.8,41.0,93,29.89,2.0,WSW,6.9,-,N/A,,Overcast,240,2012-11-07 05:46:00
11:53 PM,43.0,41.0,93,29.90,2.0,WSW,6.9,-,N/A,,Overcast,250,2012-11-07 05:53:00